#timestamp,LO_Frequency,Hit 
1499871615.9,286046978.4,N
1499871635.7,286046975.1,N
1499871655.5,286046973.2,N
1499871675.3,286046972.5,N
1499871695.2,286046973.0,N
1499871715.0,286046970.9,N
1499871715.9,286046970.9,N
1499871735.7,286046971.0,N
1499871755.6,286046973.9,N
1499871775.4,286046971.1,N
1499871795.2,286046971.2,N
1499871815.1,286046970.7,N
1499871816.0,286046970.7,N
1499871835.8,286046969.0,N
1499871855.6,286046965.3,N
1499871875.5,286046960.5,N
1499871895.3,286046960.3,N
1499871915.1,286046961.5,N
1499871935.9,286046961.4,N
1499871955.7,286046964.4,N
1499871975.5,286046963.5,N
1499871995.4,286046960.6,N
1499872015.2,286046962.8,N
1499872035.0,286046960.3,N
1499872035.9,286046960.3,N
1499872055.8,286046960.0,N
1499872075.6,286046960.6,N
1499872095.4,286046958.2,N
1499872115.2,286046957.0,N
1499872135.1,286046955.1,N
1499872136.0,286046955.1,N
1499872155.8,286046955.5,N
1499872175.6,286046952.1,N
1499872195.5,286046952.8,N
1499872215.3,286046952.0,N
1499872235.1,286046952.5,N
1499872255.9,286046951.8,N
1499872275.7,286046951.7,N
1499872295.5,286046954.6,N
1499872315.4,286046950.8,N
1499872335.2,286046951.0,N
1499872355.0,286046950.6,N
1499872355.9,286046950.6,N
1499872375.8,286046947.1,N
1499872395.6,286046948.3,N
1499872415.4,286046945.6,N
1499872435.3,286046946.3,N
1499872455.1,286046944.3,N
1499872456.0,286046944.3,N
1499872475.1,286046945.0,N
1499872476.0,286046945.0,N
1499872495.8,286046944.0,N
1499872515.6,286046942.2,N
1499872535.5,286046942.3,N
1499872555.3,286046942.8,N
1499872575.1,286046944.9,N
1499872595.9,286046943.4,N
1499872615.7,286046942.3,N
1499872635.5,286046946.2,N
1499872655.4,286046946.0,N
1499872675.2,286046946.9,N
1499872695.0,286046948.0,N
1499872695.9,286046948.0,N
1499872715.8,286046945.4,N
1499872735.6,286046947.2,N
1499872755.4,286046948.8,N
1499872775.3,286046951.3,N
1499872795.1,286046951.5,N
1499872796.0,286046951.5,N
1499872815.8,286046950.3,N
1499872835.7,286046948.9,N
1499872855.5,286046947.4,N
1499872875.3,286046947.6,N
1499872895.1,286046947.0,N
1499872915.9,286046951.3,N
1499872935.7,286046951.4,N
1499872955.5,286046949.1,N
1499872975.4,286046947.9,N
1499872995.2,286046949.5,N
1499873015.0,286046949.4,N
1499873015.9,286046949.4,N
1499873035.8,286046949.6,N
1499873055.6,286046950.0,N
1499873075.4,286046949.4,N
1499873095.3,286046951.4,N
1499873115.1,286046952.8,N
1499873116.0,286046952.8,N
1499873135.8,286046953.2,N
1499873155.7,286046949.7,N
1499873175.5,286046948.2,N
1499873195.3,286046949.5,N
1499873215.1,286046950.8,N
1499873235.9,286046951.5,N
1499873255.7,286046948.7,N
1499873275.5,286046951.0,N
1499873295.4,286046949.4,N
1499873315.2,286046950.0,N
1499873335.0,286046947.5,N
1499873335.9,286046947.5,N
1499873355.8,286046947.2,N
1499873375.6,286046945.6,N
1499873395.4,286046946.0,N
1499873415.3,286046946.1,N
1499873435.1,286046948.4,N
1499873436.0,286046948.4,N
1499873455.8,286046951.5,N
1499873475.7,286046950.6,N
1499873495.5,286046951.6,N
1499873515.3,286046952.9,N
1499873535.2,286046951.0,N
1499873555.9,286046949.0,N
1499873575.7,286046949.7,N
1499873595.5,286046948.6,N
1499873615.4,286046949.2,N
1499873635.2,286046949.2,N
1499873655.0,286046950.5,N
1499873655.9,286046950.5,N
1499873675.8,286046952.9,N
1499873695.6,286046954.1,N
1499873715.4,286046955.4,N
1499873735.3,286046953.6,N
1499873755.1,286046950.3,N
1499873756.0,286046950.3,N
1499873775.8,286046957.9,N
1499873795.7,286046955.7,N
1499873815.5,286046955.2,N
1499873835.3,286046957.6,N
1499873855.2,286046958.0,N
1499873875.9,286046954.9,N
1499873895.7,286046958.0,N
1499873915.6,286046959.2,N
1499873935.4,286046961.1,N
1499873955.2,286046959.8,N
1499873975.0,286046965.8,N
1499873975.9,286046965.8,N
1499873995.8,286046964.3,N
1499874015.6,286046965.3,N
1499874035.4,286046966.4,N
1499874055.3,286046964.3,N
1499874075.1,286046961.6,N
1499874095.8,286046961.8,N
1499874115.7,286046960.3,N
1499874135.5,286046963.1,N
1499874155.3,286046964.8,N
1499874175.2,286046964.2,N
1499874195.9,286046960.1,N
1499874215.7,286046960.6,N
1499874235.6,286046958.7,N
1499874255.4,286046958.7,N
1499874275.2,286046959.8,N
1499874295.0,286046959.8,N
1499874296.0,286046959.8,N
1499874315.8,286046959.9,N
1499874335.6,286046964.6,N
1499874355.4,286046967.2,N
1499874375.3,286046963.4,N
1499874395.1,286046963.5,N
1499874415.8,286046964.1,N
1499874435.7,286046961.9,N
1499874455.5,286046963.1,N
1499874475.3,286046965.6,N
1499874495.2,286046963.2,N
1499874515.9,286046965.1,N
1499874535.7,286046966.1,N
1499874555.6,286046970.4,N
1499874575.4,286046968.0,N
1499874595.2,286046968.6,N
1499874615.1,286046966.5,N
1499874616.0,286046966.5,N
1499874635.8,286046966.5,N
1499874655.6,286046969.1,N
1499874675.5,286046966.4,N
1499874695.3,286046965.0,N
1499874715.1,286046965.5,N
1499874735.9,286046965.1,N
1499874755.7,286046968.8,N
1499874775.5,286046966.2,N
1499874795.3,286046970.3,N
1499874815.2,286046968.7,N
1499874835.0,286046968.0,N
1499874835.9,286046968.0,N
1499874855.7,286046970.7,N
1499874875.6,286046968.0,N
1499874895.4,286046968.8,N
1499874915.2,286046966.7,N
1499874935.1,286046967.6,N
1499874936.0,286046967.6,N
1499874955.8,286046966.7,N
1499874975.6,286046967.5,N
1499874995.5,286046966.5,N
1499875015.3,286046968.7,N
1499875035.1,286046965.4,N
1499875055.9,286046964.3,N
1499875075.7,286046965.5,N
1499875095.5,286046967.5,N
1499875115.4,286046967.2,N
1499875135.2,286046965.6,N
1499875155.0,286046964.2,N
1499875155.9,286046964.2,N
1499875175.8,286046960.1,N
1499875195.6,286046960.3,N
